Time,TemperatureF,DewpointF,PressureIn,WindDirection,WindDirectionDegrees,WindSpeedMPH,WindSpeedGustMPH,Humidity,HourlyPrecipIn,Conditions,Clouds,dailyrainin,SoftwareType,DateUTC
2013-02-07 00:10:00,33.0,30.0,25.68,NNW,332,10.0,13.0,88,0.00,,,0.00,weatherlink.com 1.10,2013-02-07 07:10:00,
2013-02-07 00:25:00,32.2,30.0,25.68,NNW,335,5.0,11.0,92,0.00,,,0.00,weatherlink.com 1.10,2013-02-07 07:25:00,
2013-02-07 00:40:00,31.9,30.0,25.68,North,11,1.0,3.0,93,0.00,,,0.00,weatherlink.com 1.10,2013-02-07 07:40:00,
2013-02-07 00:56:00,31.9,30.0,25.67,ENE,68,1.0,1.0,94,0.00,,,0.00,weatherlink.com 1.10,2013-02-07 07:56:00,
2013-02-07 01:11:00,31.1,30.0,25.67,NNW,330,3.0,3.0,94,0.00,,,0.00,weatherlink.com 1.10,2013-02-07 08:11:00,
2013-02-07 01:26:00,27.4,26.0,25.68,NW,307,4.0,5.0,93,0.00,,,0.00,weatherlink.com 1.10,2013-02-07 08:26:00,
2013-02-07 01:41:00,28.8,28.0,25.68,West,270,3.0,5.0,95,0.00,,,0.00,weatherlink.com 1.10,2013-02-07 08:41:00,
2013-02-07 01:56:00,28.1,27.0,25.68,West,276,3.0,4.0,95,0.00,,,0.00,weatherlink.com 1.10,2013-02-07 08:56:00,
2013-02-07 02:11:00,26.6,25.0,25.68,West,259,3.0,4.0,93,0.00,,,0.00,weatherlink.com 1.10,2013-02-07 09:11:00,
2013-02-07 02:26:00,24.9,24.0,25.68,WNW,299,3.0,4.0,94,0.00,,,0.00,weatherlink.com 1.10,2013-02-07 09:26:00,
2013-02-07 02:41:00,24.9,24.0,25.68,West,259,4.0,5.0,95,0.00,,,0.00,weatherlink.com 1.10,2013-02-07 09:41:00,
2013-02-07 02:56:00,24.5,23.0,25.68,West,271,3.0,6.0,94,0.00,,,0.00,weatherlink.com 1.10,2013-02-07 09:56:00,
2013-02-07 03:11:00,22.8,21.0,25.68,WNW,289,3.0,6.0,92,0.00,,,0.00,weatherlink.com 1.10,2013-02-07 10:11:00,
2013-02-07 03:27:00,22.3,21.0,25.67,WNW,297,3.0,4.0,94,0.00,,,0.00,weatherlink.com 1.10,2013-02-07 10:27:00,
2013-02-07 03:41:00,22.6,21.0,25.67,West,262,2.0,2.0,93,0.00,,,0.00,weatherlink.com 1.10,2013-02-07 10:41:00,
2013-02-07 03:56:00,21.7,20.0,25.67,WNW,293,2.0,3.0,92,0.00,,,0.00,weatherlink.com 1.10,2013-02-07 10:56:00,
2013-02-07 04:11:00,22.2,21.0,25.68,WNW,302,5.0,6.0,95,0.00,,,0.00,weatherlink.com 1.10,2013-02-07 11:11:00,
2013-02-07 04:26:00,23.4,22.0,25.68,NW,311,5.0,7.0,94,0.00,,,0.00,weatherlink.com 1.10,2013-02-07 11:26:00,
2013-02-07 04:41:00,22.3,20.0,25.68,NW,307,4.0,6.0,91,0.00,,,0.00,weatherlink.com 1.10,2013-02-07 11:41:00,
2013-02-07 04:56:00,20.4,18.0,25.68,WNW,300,2.0,4.0,91,0.00,,,0.00,weatherlink.com 1.10,2013-02-07 11:56:00,
2013-02-07 05:11:00,19.6,17.0,25.68,WNW,302,3.0,4.0,91,0.00,,,0.00,weatherlink.com 1.10,2013-02-07 12:11:00,
2013-02-07 05:26:00,20.6,19.0,25.68,NW,309,6.0,6.0,93,0.00,,,0.00,weatherlink.com 1.10,2013-02-07 12:26:00,
2013-02-07 05:41:00,22.3,20.0,25.69,NW,306,5.0,7.0,90,0.00,,,0.00,weatherlink.com 1.10,2013-02-07 12:41:00,
2013-02-07 05:56:00,20.5,18.0,25.69,WNW,289,2.0,6.0,88,0.00,,,0.00,weatherlink.com 1.10,2013-02-07 12:56:00,
2013-02-07 06:11:00,18.8,16.0,25.70,West,274,2.0,3.0,89,0.00,,,0.00,weatherlink.com 1.10,2013-02-07 13:11:00,
2013-02-07 06:26:00,17.4,15.0,25.70,WNW,302,1.0,2.0,90,0.00,,,0.00,weatherlink.com 1.10,2013-02-07 13:26:00,
2013-02-07 06:41:00,15.8,13.0,25.70,NW,308,1.0,3.0,89,0.00,,,0.00,weatherlink.com 1.10,2013-02-07 13:41:00,
2013-02-07 06:57:00,17.7,15.0,25.71,WNW,302,5.0,6.0,90,0.00,,,0.00,weatherlink.com 1.10,2013-02-07 13:57:00,
2013-02-07 07:12:00,18.5,16.0,25.71,NW,309,6.0,7.0,91,0.00,,,0.00,weatherlink.com 1.10,2013-02-07 14:12:00,
2013-02-07 07:27:00,21.3,19.0,25.71,NW,316,7.0,7.0,91,0.00,,,0.00,weatherlink.com 1.10,2013-02-07 14:27:00,
2013-02-07 07:42:00,23.9,21.0,25.71,NW,316,6.0,8.0,89,0.00,,,0.00,weatherlink.com 1.10,2013-02-07 14:42:00,
2013-02-07 07:57:00,25.0,22.0,25.72,NW,315,7.0,9.0,88,0.00,,,0.00,weatherlink.com 1.10,2013-02-07 14:57:00,
2013-02-07 08:12:00,26.1,23.0,25.72,NW,309,6.0,10.0,87,0.00,,,0.00,weatherlink.com 1.10,2013-02-07 15:12:00,
2013-02-07 08:27:00,26.9,24.0,25.73,NW,307,7.0,9.0,88,0.00,,,0.00,weatherlink.com 1.10,2013-02-07 15:27:00,
2013-02-07 08:42:00,29.5,26.0,25.73,NW,316,9.0,12.0,87,0.00,,,0.00,weatherlink.com 1.10,2013-02-07 15:42:00,
2013-02-07 08:57:00,31.4,28.0,25.73,NW,322,8.0,11.0,86,0.00,,,0.00,weatherlink.com 1.10,2013-02-07 15:57:00,
2013-02-07 09:12:00,32.7,28.0,25.73,NW,316,14.0,14.0,84,0.00,,,0.00,weatherlink.com 1.10,2013-02-07 16:12:00,
2013-02-07 09:27:00,33.9,29.0,25.73,NW,308,10.0,14.0,83,0.00,,,0.00,weatherlink.com 1.10,2013-02-07 16:27:00,
2013-02-07 09:42:00,35.7,30.0,25.73,NW,314,11.0,15.0,79,0.00,,,0.00,weatherlink.com 1.10,2013-02-07 16:42:00,
2013-02-07 09:57:00,37.3,29.0,25.73,NW,322,12.0,17.0,73,0.00,,,0.00,weatherlink.com 1.10,2013-02-07 16:57:00,
2013-02-07 10:12:00,38.3,30.0,25.73,NNW,344,10.0,14.0,73,0.00,,,0.00,weatherlink.com 1.10,2013-02-07 17:12:00,
2013-02-07 10:27:00,39.0,29.0,25.73,NW,312,9.0,14.0,67,0.00,,,0.00,weatherlink.com 1.10,2013-02-07 17:27:00,
2013-02-07 10:42:00,39.7,26.0,25.73,NNW,348,7.0,12.0,58,0.00,,,0.00,weatherlink.com 1.10,2013-02-07 17:42:00,
2013-02-07 10:57:00,40.5,25.0,25.74,NNW,328,7.0,11.0,55,0.00,,,0.00,weatherlink.com 1.10,2013-02-07 17:57:00,
2013-02-07 11:12:00,40.9,23.0,25.73,NNW,334,6.0,11.0,50,0.00,,,0.00,weatherlink.com 1.10,2013-02-07 18:12:00,
2013-02-07 11:27:00,41.5,23.0,25.73,NNW,328,4.0,12.0,48,0.00,,,0.00,weatherlink.com 1.10,2013-02-07 18:27:00,
2013-02-07 11:42:00,42.0,22.0,25.73,NNW,332,8.0,10.0,46,0.00,,,0.00,weatherlink.com 1.10,2013-02-07 18:42:00,
2013-02-07 11:57:00,42.0,21.0,25.72,NE,53,2.0,10.0,44,0.00,,,0.00,weatherlink.com 1.10,2013-02-07 18:57:00,
2013-02-07 12:12:00,42.4,19.0,25.72,NW,309,1.0,10.0,40,0.00,,,0.00,weatherlink.com 1.10,2013-02-07 19:12:00,
2013-02-07 12:27:00,42.8,20.0,25.71,NNW,330,7.0,10.0,40,0.00,,,0.00,weatherlink.com 1.10,2013-02-07 19:27:00,
2013-02-07 12:42:00,43.0,19.0,25.71,ENE,72,1.0,10.0,39,0.00,,,0.00,weatherlink.com 1.10,2013-02-07 19:42:00,
2013-02-07 12:58:00,43.6,21.0,25.71,WNW,298,5.0,11.0,40,0.00,,,0.00,weatherlink.com 1.10,2013-02-07 19:58:00,
2013-02-07 13:13:00,44.0,19.0,25.70,WSW,256,4.0,9.0,37,0.00,,,0.00,weatherlink.com 1.10,2013-02-07 20:13:00,
2013-02-07 13:28:00,44.2,19.0,25.70,NW,326,4.0,9.0,37,0.00,,,0.00,weatherlink.com 1.10,2013-02-07 20:28:00,
2013-02-07 13:43:00,45.1,19.0,25.69,South,172,5.0,9.0,36,0.00,,,0.00,weatherlink.com 1.10,2013-02-07 20:43:00,
2013-02-07 13:58:00,44.8,20.0,25.69,WSW,242,6.0,6.0,37,0.00,,,0.00,weatherlink.com 1.10,2013-02-07 20:58:00,
2013-02-07 14:13:00,45.5,20.0,25.68,WSW,252,5.0,11.0,36,0.00,,,0.00,weatherlink.com 1.10,2013-02-07 21:13:00,
2013-02-07 14:28:00,46.6,21.0,25.68,West,273,4.0,7.0,36,0.00,,,0.00,weatherlink.com 1.10,2013-02-07 21:28:00,
2013-02-07 14:43:00,46.8,21.0,25.67,NNW,338,8.0,13.0,36,0.00,,,0.00,weatherlink.com 1.10,2013-02-07 21:43:00,
2013-02-07 14:58:00,47.0,20.0,25.68,SSE,159,1.0,13.0,34,0.00,,,0.00,weatherlink.com 1.10,2013-02-07 21:58:00,
2013-02-07 15:13:00,48.3,20.0,25.68,WSW,252,0.0,3.0,33,0.00,,,0.00,weatherlink.com 1.10,2013-02-07 22:13:00,
2013-02-07 15:28:00,47.4,17.0,25.67,SW,224,1.0,7.0,30,0.00,,,0.00,weatherlink.com 1.10,2013-02-07 22:28:00,
2013-02-07 15:43:00,47.5,17.0,25.67,WSW,257,5.0,7.0,30,0.00,,,0.00,weatherlink.com 1.10,2013-02-07 22:43:00,
2013-02-07 15:58:00,47.4,17.0,25.67,NE,46,3.0,6.0,30,0.00,,,0.00,weatherlink.com 1.10,2013-02-07 22:58:00,
2013-02-07 16:13:00,46.9,18.0,25.67,SW,231,5.0,7.0,31,0.00,,,0.00,weatherlink.com 1.10,2013-02-07 23:13:00,
2013-02-07 16:28:00,46.7,18.0,25.67,South,173,3.0,6.0,32,0.00,,,0.00,weatherlink.com 1.10,2013-02-07 23:28:00,
2013-02-07 16:43:00,46.6,19.0,25.67,South,170,5.0,6.0,33,0.00,,,0.00,weatherlink.com 1.10,2013-02-07 23:43:00,
2013-02-07 16:58:00,44.5,18.0,25.67,SSE,161,3.0,5.0,35,0.00,,,0.00,weatherlink.com 1.10,2013-02-07 23:58:00,
2013-02-07 17:13:00,41.4,17.0,25.67,SSE,158,4.0,4.0,38,0.00,,,0.00,weatherlink.com 1.10,2013-02-08 00:13:00,
2013-02-07 17:28:00,37.5,16.0,25.67,SSE,152,4.0,6.0,41,0.00,,,0.00,weatherlink.com 1.10,2013-02-08 00:28:00,
2013-02-07 17:43:00,36.1,16.0,25.67,SE,145,5.0,6.0,44,0.00,,,0.00,weatherlink.com 1.10,2013-02-08 00:43:00,
2013-02-07 17:58:00,33.7,15.0,25.67,SSE,153,4.0,5.0,47,0.00,,,0.00,weatherlink.com 1.10,2013-02-08 00:58:00,
2013-02-07 18:13:00,31.6,15.0,25.67,SSE,150,4.0,5.0,50,0.00,,,0.00,weatherlink.com 1.10,2013-02-08 01:13:00,
2013-02-07 18:28:00,30.2,14.0,25.68,SE,146,6.0,7.0,52,0.00,,,0.00,weatherlink.com 1.10,2013-02-08 01:28:00,
2013-02-07 18:43:00,28.2,14.0,25.67,SE,143,5.0,6.0,55,0.00,,,0.00,weatherlink.com 1.10,2013-02-08 01:43:00,
2013-02-07 18:58:00,27.0,13.0,25.67,South,179,5.0,7.0,57,0.00,,,0.00,weatherlink.com 1.10,2013-02-08 01:58:00,
2013-02-07 19:13:00,24.8,13.0,25.67,SSE,155,6.0,7.0,62,0.00,,,0.00,weatherlink.com 1.10,2013-02-08 02:13:00,
2013-02-07 19:28:00,24.1,14.0,25.67,SSE,167,5.0,7.0,65,0.00,,,0.00,weatherlink.com 1.10,2013-02-08 02:28:00,
2013-02-07 19:43:00,23.9,14.0,25.66,SSE,149,5.0,7.0,67,0.00,,,0.00,weatherlink.com 1.10,2013-02-08 02:43:00,
2013-02-07 19:58:00,23.1,14.0,25.67,SSW,204,5.0,7.0,68,0.00,,,0.00,weatherlink.com 1.10,2013-02-08 02:58:00,
2013-02-07 20:13:00,23.2,14.0,25.67,SSW,213,7.0,9.0,69,0.00,,,0.00,weatherlink.com 1.10,2013-02-08 03:13:00,
2013-02-07 20:28:00,23.2,14.0,25.68,SSW,207,7.0,8.0,69,0.00,,,0.00,weatherlink.com 1.10,2013-02-08 03:28:00,
2013-02-07 20:43:00,23.3,15.0,25.67,SSW,210,6.0,8.0,71,0.00,,,0.00,weatherlink.com 1.10,2013-02-08 03:43:00,
2013-02-07 20:58:00,24.1,16.0,25.67,SSW,200,3.0,7.0,70,0.00,,,0.00,weatherlink.com 1.10,2013-02-08 03:58:00,
2013-02-07 21:13:00,24.5,16.0,25.67,SSW,197,8.0,9.0,71,0.00,,,0.00,weatherlink.com 1.10,2013-02-08 04:13:00,
2013-02-07 21:28:00,24.5,16.0,25.67,South,181,7.0,10.0,70,0.00,,,0.00,weatherlink.com 1.10,2013-02-08 04:28:00,
2013-02-07 21:43:00,23.1,15.0,25.66,South,179,6.0,7.0,71,0.00,,,0.00,weatherlink.com 1.10,2013-02-08 04:43:00,
2013-02-07 21:58:00,21.5,14.0,25.67,SSE,160,5.0,7.0,73,0.00,,,0.00,weatherlink.com 1.10,2013-02-08 04:58:00,
2013-02-07 22:13:00,21.2,14.0,25.66,South,179,5.0,8.0,75,0.00,,,0.00,weatherlink.com 1.10,2013-02-08 05:13:00,
2013-02-07 22:28:00,21.4,15.0,25.66,South,170,6.0,7.0,76,0.00,,,0.00,weatherlink.com 1.10,2013-02-08 05:28:00,
2013-02-07 22:43:00,20.8,15.0,25.66,South,183,7.0,8.0,77,0.00,,,0.00,weatherlink.com 1.10,2013-02-08 05:43:00,
2013-02-07 22:58:00,22.4,16.0,25.66,SSW,193,7.0,8.0,75,0.00,,,0.00,weatherlink.com 1.10,2013-02-08 05:58:00,
2013-02-07 23:13:00,21.8,15.0,25.66,SSW,207,6.0,8.0,75,0.00,,,0.00,weatherlink.com 1.10,2013-02-08 06:13:00,
2013-02-07 23:43:00,22.8,16.0,25.66,South,191,6.0,7.0,74,0.00,,,0.00,weatherlink.com 1.10,2013-02-08 06:43:00,
2013-02-07 23:58:00,23.5,16.0,25.65,SSE,167,7.0,9.0,74,0.00,,,0.00,weatherlink.com 1.10,2013-02-08 06:58:00,